AirNav   Duncan Aviation - Near you to keep you flying
 
 971 users online  

10OK Hickory Hills Airport
Norman, Oklahoma, USA

GOING TO NORMAN?


FAA INFORMATION EFFECTIVE 03 NOVEMBER 2022

Location

FAA Identifier: 10OK
Lat/Long: 35-09-47.6200N 097-13-21.9200W
35-09.793667N 097-13.365333W
35.1632278,-97.2227556
(estimated)
Elevation: 1175 ft. / 358 m (estimated)
Variation: 07E (1985)
From city: 12 miles SE of NORMAN, OK
Time zone: UTC -6 (UTC -5 during Daylight Saving Time)
Zip code: 73068

Airport Operations

Airport use: Private use. Permission required prior to landing
Activation date: 11/1982
Control tower: no
ARTCC: FORT WORTH CENTER
FSS: MC ALESTER FLIGHT SERVICE STATION
Attendance: 1600-2200
Wind indicator: yes
Segmented circle: no

Airport Communications

UNICOM: 123.0
WX AWOS-3 at OUN (13 nm W): 119.55 (405-325-7302)
WX AWOS-3 at SNL (18 nm NE): 118.275 (405-878-1745)

Nearby radio navigation aids

VOR radial/distance  VOR name  Freq  Var
IRWr115/22.3WILL ROGERS VORTAC114.1007E
PWAr129/30.4WILEY POST VOR/DME113.4008E

 
NDB name  Hdg/Dist  Freq  Var  ID
SEMINOLE250/27.627806ESRE ... .-. .

Airport Services

Runway Information

Runway 17/35

Dimensions: 2600 x 150 ft. / 792 x 46 m
Surface: turf
RUNWAY 17  RUNWAY 35
Traffic pattern: leftleft
Obstructions: trees, 200 ft. from runwaytrees, 200 ft. from runway

Airport Ownership and Management from official FAA records

Ownership: Privately-owned
Owner: EUGENE L. COLLETT
170 HICKORY HILLS CIRCLE
NOBLE, OK 73068
Phone 405-872-5077
Manager: EUGENE L. COLLETT
170 HICKORY HILLS CIRCLE
NOBLE, OK 73068
Phone 405-872-5077

Airport Operational Statistics

Aircraft based on the field: 1
Single engine airplanes: 1
    

Additional Remarks

FOR CD CTC OKE CITY APCH AT 405-681-5683.

Instrument Procedures

There are no published instrument procedures at 10OK.

Some nearby airports with instrument procedures:

KHMY - Muldrow Army Heliport (8 nm S)
1K4 - David Jay Perry Airport (12 nm W)
KOUN - University of Oklahoma Westheimer Airport (13 nm W)
KTIK - Tinker Air Force Base (17 nm NW)
KSNL - Shawnee Regional Airport (18 nm NE)
 
Loc | Ops | Rwys | IFR | FBO | Links
Com | Nav | Svcs | Stats | Notes
Area around 10OK (Hickory Hills Airport)
 
Road maps at: MapQuest Bing Google
 
Aerial photo
No photo
 
Sectional chart

 
Airport distance calculator
Flying to Hickory Hills Airport? Find the distance to fly.

From to 10OK

Sunrise and sunset
Times for 29-Nov-2022
 Local
(UTC-6)
 Zulu
(UTC)
Morning civil twilight06:5012:50
Sunrise07:1813:18
Sunset17:1623:16
Evening civil twilight17:4423:44

Current date and time
Zulu (UTC)  30-Nov-2022 02:03:06
Local (UTC-6)  29-Nov-2022 20:03:06
 
METAR
KOUN 
12nm W 
300145Z 33027G33KT 10SM SCT026 02/M03 A3001
KTIK 
17nm NW 
300155Z AUTO 36024G29KT 10SM CLR 01/M04 A3001 RMK AO2 PK WND 34034/01 SLP173 T00141041 $
KSNL 
17nm NE 
300135Z AUTO 34021G27KT 10SM CLR 02/M04 A3001 RMK AO2 T00201040
TAF
KOUN 
12nm W 
291726Z 2918/3018 24017G24KT P6SM SKC FM292000 34018G27KT P6SM SCT090 TEMPO 3000/3003 34025G31KT FM300800 35014KT P6SM SKC FM300900 35010KT P6SM SKC
KTIK 
17nm NW 
291000Z 2910/3016 17012G20KT 9999 SCT250 WS020/21050KT QNH2955INS BECMG 2914/2915 21015G25KT 9999 BKN250 510053 QNH2957INS BECMG 2923/2924 33020G30KT 9999 BKN200 510053 QNH2971INS BECMG 3005/3006 35012G20KT 9999 FEW150 510023 QNH3015INS TX19/2920Z TN02/3007Z
NOTAMs
Click for the latest NOTAMs
NOTAMs are issued by the DoD/FAA and will open in a separate window not controlled by AirNav.

 

 
 

Would you like to see your business listed on this page?

 If your business provides an interesting product or service to pilots, flight crews, aircraft, or users of the Hickory Hills Airport, you should consider listing it here.  To start the listing process, click on the button below
 
Add a business
 

Other Pages about Hickory Hills Airport

Update a link
 
Copyright © AirNav, LLC. All rights reserved. Privacy Policy  Contact